COSMOS 1738

导读

COSMOS 1738是CIS(独联体继承苏联航天遗产)于1986年4月4日发射的卫星,隶属于苏联“宇宙”(COSMOS)系列航天器,该系列是苏联航天计划的核心组成,涵盖军事侦察、技术试验等多重任务。作为冷战时期航天活动产物,其具体任务细节受保密政策限制未完全公开,体现了当时苏联在近地轨道航天领域的技术积累,是苏联航天活动历史的重要见证。

Basic Information
目录编号:
16667
目录名称:
COSMOS 1738
国际标识:
1986-027A
轨道中心:
EARTH
卫星名称:
COSMOS 1738
卫星全名:
--
卫星状态:
在轨 (已飞行14684 天)
发射日期:
1986-04-04 UTC
国别 :
俄罗斯(独联体) (CIS)
星等 :
--
Orbit Information
数据来源 国际轨道数据 AOE轨道数据
星历时间 2026-06-17T00:24:07+0800
17小时前
查看轨道信息
2026-06-15T12:00:00+0800
2天前
查看轨道信息
半长轴 42165.569km 42165.541km
偏心率 0.0013498 0.001332
轨道倾角 10.260° 10.262°
近地点辐角 144.819° 144.476°
升交点赤经 317.803° 317.816°
平近点角 41.201° 214.027°
近地点 35730.516km 35731.239km
远地点 35844.348km 35843.569km
周期 1436.140分钟 1436.138分钟
每日圈数 1.002688 1.002689
Detailed Information
使用方式:
暂无
2D Orbit Map
3D Orbit Map
Orbit Altitude Analysis Chart
Orbit Inclination Analysis Chart
Orbit Comprehensive Analysis Chart
View Comprehensive Chart